| Temperature (°F) | Max | Average | Min |
|---|---|---|---|
| Max Temperature | 55 | 30.77 | 12 |
| Avg Temperature | 43.77 | 23.31 | 2.36 |
| Min Temperature | 37 | 15.9 | -11 |
| Dew Point (°F) | Max | Average | Min |
|---|---|---|---|
| Dew Point | 57 | 16.58 | -15 |
| Precipitation (in) | Max | Average | Min | Sum |
|---|---|---|---|---|
| Precipitation | 0.00 | 0.00 | 0.00 | 0.00 |
| Snowdepth | 0.00 | 0.00 | 0.00 | 0.00 |
| Wind (mph) | Max | Average | Min |
|---|---|---|---|
| Wind | 144 | 9.25 | 0 |
| Gust Wind | 46 | 4.36 | 0 |
| Sea Level Pressure (in) | Max | Average | Min |
|---|---|---|---|
| Sea Level Pressure | 29.49 | 28.82 | 28.31 |
| Date | Temperature (°F) | Dew Point (°F) | Humidity (%) | Wind Speed (mph) | Pressure (in) | Precipitation (in) | ||||||||||
|---|---|---|---|---|---|---|---|---|---|---|---|---|---|---|---|---|
| Max | Avg | Min | Max | Avg | Min | Max | Avg | Min | Max | Avg | Min | Max | Avg | Min | ||
| 1/31/2025 | 55 | 43.8 | 37 | 52 | 42.1 | 32 | 100 | 94.4 | 57 | 21 | 5.4 | 0 | 28.8 | 28.6 | 28.4 | 0.00 |
| 1/30/2025 | 46 | 33.8 | 25 | 28 | 25.0 | 21 | 93 | 72.8 | 40 | 14 | 3.4 | 0 | 28.9 | 28.9 | 28.8 | 0.00 |
| 1/29/2025 | 41 | 38.3 | 34 | 28 | 26.3 | 23 | 81 | 61.5 | 49 | 32 | 16.7 | 5 | 28.8 | 28.5 | 28.3 | 0.00 |
| 1/28/2025 | 39 | 34.4 | 32 | 25 | 19.9 | 12 | 64 | 55.7 | 44 | 28 | 17.8 | 12 | 28.6 | 28.5 | 28.4 | 0.00 |
| 1/27/2025 | 36 | 26.9 | 18 | 18 | 15.1 | 12 | 86 | 62.4 | 38 | 20 | 11.1 | 5 | 28.9 | 28.8 | 28.5 | 0.00 |
| 1/26/2025 | 37 | 33.7 | 27 | 23 | 20.2 | 14 | 69 | 58.2 | 41 | 18 | 11.9 | 5 | 29.0 | 28.9 | 28.9 | 0.00 |
| 1/25/2025 | 36 | 21.0 | 7 | 21 | 12.1 | 3 | 85 | 70.1 | 51 | 23 | 8.6 | 0 | 29.1 | 29.0 | 28.9 | 0.00 |
| 1/24/2025 | 25 | 20.7 | 10 | 21 | 13.1 | 5 | 93 | 73.4 | 54 | 15 | 5.8 | 0 | 29.0 | 29.0 | 28.9 | 0.00 |
| 1/23/2025 | 28 | 14.0 | 1 | 18 | 6.0 | -2 | 92 | 72.3 | 43 | 25 | 6.4 | 0 | 29.0 | 28.9 | 28.9 | 0.00 |
| 1/22/2025 | 12 | 2.4 | -11 | 0 | -5.5 | -15 | 92 | 71.3 | 45 | 8 | 1.9 | 0 | 29.3 | 29.1 | 29.0 | 0.00 |
| 1/21/2025 | 12 | 2.5 | -4 | 5 | -3.9 | -9 | 85 | 76.2 | 53 | 13 | 6.9 | 0 | 29.3 | 29.2 | 29.1 | 0.00 |
| 1/20/2025 | 19 | 11.4 | 0 | 16 | 5.8 | -6 | 93 | 78.7 | 57 | 20 | 10.6 | 3 | 29.3 | 29.0 | 28.8 | 0.00 |
| 1/19/2025 | 32 | 24.2 | 19 | 30 | 22.0 | 18 | 100 | 91.4 | 80 | 15 | 7.7 | 3 | 28.8 | 28.7 | 28.6 | 0.00 |
| 1/18/2025 | 45 | 36.6 | 23 | 37 | 27.9 | 16 | 100 | 75.6 | 31 | 17 | 6.7 | 0 | 28.7 | 28.6 | 28.5 | 0.00 |
| 1/17/2025 | 37 | 28.8 | 21 | 28 | 25.0 | 18 | 93 | 85.0 | 56 | 14 | 7.4 | 0 | 28.9 | 28.8 | 28.6 | 0.00 |
| 1/16/2025 | 28 | 22.5 | 10 | 27 | 17.3 | 5 | 100 | 80.6 | 68 | 18 | 11.4 | 6 | 29.5 | 28.7 | 28.5 | 0.00 |
| 1/15/2025 | 19 | 12.3 | 5 | 14 | 8.3 | 3 | 92 | 83.5 | 73 | 15 | 10.3 | 7 | 29.2 | 29.1 | 29.0 | 0.00 |
| 1/14/2025 | 19 | 14.9 | 9 | 16 | 7.7 | 3 | 93 | 74.0 | 62 | 20 | 9.6 | 0 | 29.1 | 29.0 | 28.9 | 0.00 |
| 1/13/2025 | 37 | 31.7 | 19 | 32 | 21.4 | 10 | 93 | 67.1 | 41 | 29 | 13.8 | 8 | 28.9 | 28.8 | 28.7 | 0.00 |
| 1/12/2025 | 32 | 24.9 | 18 | 23 | 21.1 | 16 | 100 | 86.4 | 69 | 13 | 6.5 | 0 | 28.9 | 28.8 | 28.7 | 0.00 |
| 1/11/2025 | 27 | 21.6 | 16 | 25 | 19.7 | 16 | 100 | 92.1 | 80 | 13 | 5.5 | 0 | 28.7 | 28.5 | 28.4 | 0.00 |
| 1/10/2025 | 23 | 13.6 | 5 | 18 | 9.7 | 1 | 100 | 84.7 | 63 | 8 | 3.3 | 0 | 29.0 | 28.8 | 28.5 | 0.00 |
| 1/9/2025 | 41 | 17.6 | 5 | 57 | 12.1 | 1 | 93 | 77.3 | 50 | 14 | 5.9 | 0 | 29.0 | 28.9 | 28.8 | 0.00 |
| 1/8/2025 | 23 | 19.8 | 18 | 19 | 14.6 | 10 | 93 | 80.2 | 63 | 20 | 9.1 | 0 | 29.0 | 28.9 | 28.8 | 0.00 |
| 1/7/2025 | 27 | 20.4 | 18 | 21 | 15.0 | 10 | 93 | 80.4 | 63 | 18 | 10.4 | 5 | 29.0 | 28.9 | 28.8 | 0.00 |
| 1/6/2025 | 27 | 21.5 | 19 | 23 | 17.8 | 12 | 93 | 85.0 | 68 | 18 | 10.5 | 0 | 28.8 | 28.6 | 28.5 | 0.00 |
| 1/5/2025 | 23 | 18.6 | 14 | 16 | 10.8 | 9 | 86 | 72.4 | 59 | 17 | 7.7 | 0 | 29.0 | 28.9 | 28.8 | 0.00 |
| 1/4/2025 | 23 | 20.5 | 18 | 19 | 14.4 | 9 | 86 | 76.9 | 68 | 22 | 13.7 | 7 | 28.9 | 28.9 | 28.8 | 0.00 |
| 1/3/2025 | 30 | 26.3 | 23 | 28 | 21.9 | 16 | 100 | 84.5 | 64 | 144 | 11.5 | 0 | 28.9 | 28.8 | 28.7 | 0.00 |
| 1/2/2025 | 30 | 28.8 | 27 | 23 | 19.6 | 16 | 75 | 68.6 | 64 | 22 | 13.6 | 7 | 28.9 | 28.9 | 28.8 | 0.00 |
| 1/1/2025 | 45 | 35.4 | 30 | 41 | 31.7 | 21 | 100 | 87.2 | 69 | 23 | 15.7 | 0 | 28.8 | 28.6 | 28.3 | 0.00 |